Weather History for Columbia, MO

Change the Weather History Date:

Saturday, February 16, 2013

  Actual Average Record
Temperature  
Mean Temperature 28 °F 35 °F  
Max Temperature 37 °F 44 °F 76 °F (1911)
Min Temperature 18 °F 25 °F -7 °F (1958)
Degree Days  
Heating Degree Days 37 30  
Month to date heating degree days 448 519  
Since 1 July heating degree days 3176 3608  
Cooling Degree Days 0 0  
Month to date cooling degree days 0 0  
Year to date cooling degree days 1 0  
Moisture  
Dew Point 14 °F    
Average Humidity 58    
Maximum Humidity 80    
Minimum Humidity 35    
Precipitation  
Precipitation 0.00 in 0.08 in 1.04 in (1945)
Month to date precipitation 0.74 1.23  
Year to date precipitation 3.12 3.15  
Snow  
Snow 0.00 in 0.20 in 12.00 in (1945)
Month to date snowfall 0.0 2.9  
Since 1 July snowfall 4.2 14.3  
Snow Depth 0.00 in    
Sea Level Pressure  
Sea Level Pressure 30.24 in    
Wind  
Wind Speed 6 mph (WNW)    
Max Wind Speed 15 mph    
Max Gust Speed 21 mph    
Visibility 10 miles    
Events      
T = Trace of Precipitation, MM = Missing Value Source: NWS Daily Summary

Daily Weather History Graph

Daily Weather History Graph

Search for Another Location

Airport:

Trip Planner

Search our weather history database for the weather conditions in past years. The results will help you decide how hot, cold, wet, or windy it might be!

Date:

Astronomy

Feb. 16, 2013 Rise Set
Actual Time 6:58 AM CST 5:47 PM CST
Civil Twilight 6:31 AM CST 6:15 PM CST
Nautical Twilight 6:00 AM CST 6:46 PM CST
Astronomical Twilight 5:29 AM CST 7:17 PM CST
Moon 10:15 AM CST (2/16) No Moon Set
Length of Visible Light 11h 43m
Length of Day
10h 49m
Waxing Crescent, 39% of the Moon is Illuminated
Feb 16
Waxing Crescent
Feb 17
First Quarter
Feb 25
Full
Mar 4
Last Quarter
Mar 11
New

Hourly Weather History & Observations

Time (CST) Temp. Windchill Dew Point Humidity Pressure Visibility Wind Dir Wind Speed Gust Speed Precip Events Conditions
12:54 AM 21.9 °F 13.4 °F 14.0 °F 72% 30.30 in 10.0 mi NNW 6.9 mph - N/A   Partly Cloudy
1:54 AM 21.0 °F 12.4 °F 12.9 °F 71% 30.29 in 10.0 mi NNW 6.9 mph - N/A   Partly Cloudy
2:54 AM 19.9 °F 13.4 °F 12.0 °F 71% 30.28 in 10.0 mi WNW 4.6 mph - N/A   Clear
3:54 AM 19.9 °F 11.1 °F 12.0 °F 71% 30.28 in 10.0 mi NW 6.9 mph - N/A   Clear
4:54 AM 19.0 °F 9.0 °F 12.0 °F 74% 30.29 in 10.0 mi NNW 8.1 mph - N/A   Clear
5:54 AM 17.6 °F 8.2 °F 12.2 °F 79% 30.25 in 10.0 mi NNW 6.9 mph - N/A   Clear
6:54 AM 18.0 °F 7.7 °F 12.0 °F 78% 30.30 in 10.0 mi NW 8.1 mph - N/A   Clear
7:54 AM 19.9 °F 12.1 °F 12.9 °F 74% 30.32 in 10.0 mi WNW 5.8 mph - N/A   Clear
8:54 AM 21.9 °F 12.5 °F 12.9 °F 68% 30.33 in 10.0 mi NW 8.1 mph - N/A   Clear
9:54 AM 26.1 °F 18.4 °F 14.0 °F 60% 30.32 in 10.0 mi WNW 6.9 mph - N/A   Clear
10:54 AM 28.9 °F 22.8 °F 12.0 °F 49% 30.30 in 10.0 mi Variable 5.8 mph - N/A   Clear
11:54 AM 30.9 °F 24.3 °F 12.0 °F 46% 30.28 in 10.0 mi SW 6.9 mph - N/A   Clear
12:54 PM 34.0 °F 28.8 °F 12.0 °F 40% 30.25 in 10.0 mi Variable 5.8 mph - N/A   Clear
1:05 PM 34.0 °F 25.0 °F 12.0 °F 40% 30.21 in 10.0 mi NW 12.7 mph - N/A   Clear
1:54 PM 36.0 °F 29.6 °F 12.0 °F 37% 30.22 in 10.0 mi West 8.1 mph 17.3 mph N/A   Clear
2:54 PM 36.0 °F 31.1 °F 12.9 °F 39% 30.20 in 10.0 mi WSW 5.8 mph - N/A   Clear
3:54 PM 36.0 °F 29.6 °F 10.9 °F 36% 30.20 in 10.0 mi WSW 8.1 mph - N/A   Clear
4:54 PM 36.0 °F 30.3 °F 12.0 °F 37% 30.19 in 10.0 mi West 6.9 mph - N/A   Clear
5:54 PM 30.9 °F 23.5 °F 12.9 °F 47% 30.19 in 10.0 mi West 8.1 mph - N/A   Clear
6:54 PM 30.9 °F 26.2 °F 14.0 °F 50% 30.20 in 10.0 mi West 4.6 mph - N/A   Clear
7:54 PM 30.9 °F 27.5 °F 15.1 °F 52% 30.20 in 10.0 mi West 3.5 mph - N/A   Overcast
8:54 PM 30.9 °F 27.5 °F 16.0 °F 54% 30.19 in 10.0 mi West 3.5 mph - N/A   Overcast
9:54 PM 30.0 °F 26.5 °F 19.9 °F 66% 30.19 in 10.0 mi South 3.5 mph - N/A   Overcast
10:54 PM 30.0 °F 25.2 °F 17.1 °F 59% 30.18 in 10.0 mi SE 4.6 mph - N/A   Overcast
11:54 PM 30.0 °F 25.2 °F 19.0 °F 64% 30.16 in 10.0 mi SE 4.6 mph - N/A   Overcast